TimeCDT,TemperatureF,Dew PointF,Humidity,Sea Level PressureIn,VisibilityMPH,Wind Direction,Wind SpeedMPH,Gust SpeedMPH,PrecipitationIn,Events,Conditions,WindDirDegrees,DateUTC
12:15 AM,50.0,44.2,81,30.30,10.0,South,4.6,-,N/A,,Clear,180,2013-04-27 05:15:00
12:35 AM,49.5,44.1,82,30.29,10.0,South,4.6,-,N/A,,Clear,180,2013-04-27 05:35:00
12:55 AM,49.1,43.9,82,30.29,10.0,South,4.6,-,N/A,,Clear,180,2013-04-27 05:55:00
1:15 AM,48.2,43.7,84,30.29,10.0,South,4.6,-,N/A,,Clear,180,2013-04-27 06:15:00
1:35 AM,48.2,43.7,84,30.28,10.0,South,3.5,-,N/A,,Clear,190,2013-04-27 06:35:00
1:55 AM,47.8,43.7,86,30.28,10.0,Calm,Calm,-,N/A,,Mostly Cloudy,0,2013-04-27 06:55:00
2:15 AM,50.0,44.6,82,30.27,10.0,Calm,Calm,-,N/A,,Overcast,0,2013-04-27 07:15:00
2:35 AM,50.0,44.6,82,30.26,10.0,Calm,Calm,-,N/A,,Scattered Clouds,0,2013-04-27 07:35:00
2:55 AM,46.9,43.0,86,30.26,10.0,Calm,Calm,-,N/A,,Clear,0,2013-04-27 07:55:00
3:15 AM,48.4,43.9,84,30.26,10.0,Calm,Calm,-,N/A,,Clear,0,2013-04-27 08:15:00
3:35 AM,45.3,42.4,90,30.26,10.0,SSE,3.5,-,N/A,,Clear,150,2013-04-27 08:35:00
3:55 AM,44.1,41.4,90,30.25,10.0,Calm,Calm,-,N/A,,Clear,0,2013-04-27 08:55:00
4:15 AM,43.2,41.5,94,30.26,10.0,SSE,4.6,-,N/A,,Clear,150,2013-04-27 09:15:00
4:35 AM,45.9,43.0,90,30.25,10.0,SE,4.6,-,N/A,,Clear,140,2013-04-27 09:35:00
4:55 AM,46.0,43.2,90,30.25,10.0,SE,4.6,-,N/A,,Clear,140,2013-04-27 09:55:00
5:15 AM,44.6,42.4,92,30.24,10.0,Calm,Calm,-,N/A,,Clear,0,2013-04-27 10:15:00
6:35 AM,44.4,42.8,94,30.25,5.0,SE,3.5,-,N/A,,Scattered Clouds,140,2013-04-27 11:35:00
6:55 AM,45.5,43.2,92,30.25,7.0,Calm,Calm,-,N/A,,Scattered Clouds,0,2013-04-27 11:55:00
7:15 AM,46.9,44.1,90,30.25,7.0,SE,3.5,-,N/A,,Clear,140,2013-04-27 12:15:00
7:35 AM,48.2,44.8,88,30.24,10.0,SE,4.6,-,N/A,,Clear,140,2013-04-27 12:35:00
7:55 AM,48.9,45.1,87,30.24,10.0,SE,3.5,-,N/A,,Clear,130,2013-04-27 12:55:00
8:15 AM,51.6,46.4,82,30.23,10.0,Calm,Calm,-,N/A,,Clear,0,2013-04-27 13:15:00
8:35 AM,52.9,46.6,79,30.21,10.0,Calm,Calm,-,N/A,,Clear,0,2013-04-27 13:35:00
8:55 AM,53.6,45.9,75,30.21,10.0,SE,3.5,-,N/A,,Clear,140,2013-04-27 13:55:00
9:15 AM,55.6,46.4,71,30.21,10.0,Calm,Calm,-,N/A,,Clear,0,2013-04-27 14:15:00
9:35 AM,55.6,45.3,68,30.21,10.0,SE,6.9,-,N/A,,Clear,130,2013-04-27 14:35:00
9:55 AM,56.3,46.2,69,30.21,10.0,SE,8.1,-,N/A,,Clear,130,2013-04-27 14:55:00
10:15 AM,57.2,46.9,69,30.21,10.0,East,8.1,-,N/A,,Clear,100,2013-04-27 15:15:00
10:35 AM,57.4,45.7,65,30.21,10.0,SE,10.4,16.1,N/A,,Clear,140,2013-04-27 15:35:00
10:55 AM,58.1,46.2,65,30.21,10.0,SE,8.1,17.3,N/A,,Scattered Clouds,140,2013-04-27 15:55:00
11:15 AM,59.5,46.0,61,30.21,10.0,SE,10.4,-,N/A,,Scattered Clouds,130,2013-04-27 16:15:00
11:35 AM,60.3,46.0,59,30.20,10.0,ESE,10.4,-,N/A,,Scattered Clouds,120,2013-04-27 16:35:00
11:55 AM,61.2,45.5,56,30.19,10.0,SSE,11.5,-,N/A,,Scattered Clouds,160,2013-04-27 16:55:00
12:15 PM,61.0,43.9,53,30.18,10.0,East,5.8,16.1,N/A,,Scattered Clouds,100,2013-04-27 17:15:00
12:35 PM,63.5,46.4,54,30.17,10.0,SE,12.7,18.4,N/A,,Scattered Clouds,140,2013-04-27 17:35:00
12:55 PM,62.6,44.6,52,30.16,10.0,SE,9.2,17.3,N/A,,Mostly Cloudy,140,2013-04-27 17:55:00
1:15 PM,62.2,44.6,52,30.15,10.0,SE,10.4,-,N/A,,Overcast,130,2013-04-27 18:15:00
1:35 PM,62.6,44.6,52,30.14,10.0,SE,10.4,-,N/A,,Overcast,130,2013-04-27 18:35:00
1:55 PM,63.1,44.2,50,30.13,10.0,SE,11.5,16.1,N/A,,Overcast,140,2013-04-27 18:55:00
2:15 PM,62.6,43.5,50,30.12,10.0,SE,10.4,-,N/A,,Overcast,130,2013-04-27 19:15:00
2:35 PM,63.9,43.7,48,30.11,10.0,SE,11.5,16.1,N/A,,Overcast,140,2013-04-27 19:35:00
2:55 PM,64.2,43.9,48,30.10,10.0,SE,8.1,-,N/A,,Scattered Clouds,140,2013-04-27 19:55:00
3:15 PM,64.8,44.4,48,30.09,10.0,South,12.7,18.4,N/A,,Scattered Clouds,170,2013-04-27 20:15:00
3:35 PM,63.9,43.0,47,30.08,10.0,SE,9.2,-,N/A,,Mostly Cloudy,130,2013-04-27 20:35:00
3:55 PM,63.7,42.3,46,30.08,10.0,SSE,6.9,-,N/A,,Mostly Cloudy,160,2013-04-27 20:55:00
4:15 PM,63.5,42.3,46,30.07,10.0,SE,6.9,-,N/A,,Mostly Cloudy,140,2013-04-27 21:15:00
4:35 PM,63.7,43.7,48,30.06,10.0,SE,10.4,-,N/A,,Mostly Cloudy,140,2013-04-27 21:35:00
4:55 PM,62.8,43.2,49,30.06,10.0,SE,12.7,-,N/A,,Overcast,140,2013-04-27 21:55:00
5:15 PM,62.4,43.7,50,30.06,10.0,SSE,11.5,-,N/A,,Overcast,150,2013-04-27 22:15:00
5:35 PM,60.3,45.5,58,30.06,10.0,South,6.9,-,N/A,,Overcast,170,2013-04-27 22:35:00
5:55 PM,59.7,45.7,60,30.05,10.0,South,10.4,-,N/A,,Overcast,190,2013-04-27 22:55:00
6:15 PM,58.5,46.9,66,30.06,10.0,South,12.7,-,N/A,,Overcast,170,2013-04-27 23:15:00
6:35 PM,57.2,47.8,71,30.05,10.0,South,9.2,-,N/A,,Overcast,170,2013-04-27 23:35:00
6:55 PM,56.8,48.2,73,30.05,10.0,SSE,8.1,-,N/A,,Overcast,150,2013-04-27 23:55:00
7:15 PM,56.3,49.3,77,30.05,10.0,South,6.9,-,N/A,,Overcast,170,2013-04-28 00:15:00
7:35 PM,56.3,49.3,77,30.04,10.0,SSE,4.6,-,N/A,,Overcast,160,2013-04-28 00:35:00
7:55 PM,55.6,49.3,79,30.03,10.0,SE,3.5,-,N/A,,Overcast,140,2013-04-28 00:55:00
8:15 PM,55.4,49.5,80,30.03,10.0,Calm,Calm,-,N/A,,Overcast,0,2013-04-28 01:15:00
8:35 PM,55.4,49.5,80,30.02,10.0,Calm,Calm,-,N/A,,Overcast,0,2013-04-28 01:35:00
8:55 PM,54.9,49.6,83,30.02,10.0,Calm,Calm,-,N/A,,Overcast,0,2013-04-28 01:55:00
9:15 PM,54.7,49.8,84,30.02,10.0,East,3.5,-,N/A,,Overcast,100,2013-04-28 02:15:00
9:35 PM,53.8,50.2,88,30.02,10.0,SE,4.6,-,N/A,,Light Drizzle,130,2013-04-28 02:35:00
9:55 PM,53.2,50.4,90,30.02,10.0,SE,4.6,-,N/A,,Overcast,130,2013-04-28 02:55:00
10:15 PM,52.7,50.2,91,30.02,10.0,SE,4.6,-,N/A,,Overcast,130,2013-04-28 03:15:00
10:35 PM,52.7,50.2,91,30.01,10.0,Calm,Calm,-,N/A,,Overcast,0,2013-04-28 03:35:00
10:55 PM,52.2,50.0,92,30.00,10.0,Calm,Calm,-,N/A,,Light Drizzle,0,2013-04-28 03:55:00
11:15 PM,52.2,50.2,93,30.00,10.0,Calm,Calm,-,N/A,,Overcast,0,2013-04-28 04:15:00
11:35 PM,52.3,50.5,94,30.00,7.0,East,3.5,-,N/A,,Light Drizzle,100,2013-04-28 04:35:00
11:55 PM,52.3,50.9,95,29.99,7.0,Calm,Calm,-,N/A,Rain,Rain,0,2013-04-28 04:55:00